Regional Weather Roundup
Issued by NWS

Home | Current Version | Previous Version | Text Only | Print | Product List | Glossary Off
Versions: 1 2 3 4 5 6 7 8 9 10 11 12 13 14 15 16 17 18 19 20 21 22 23 24 25 26 27 28 29 30 31 32 33 34 35 36 37 38 39 40 41 42 43 44 45 46 47 48 49 50

816
ASUS44 KJAN 292303
RWRMS

MISSISSIPPI HOURLY WEATHER ROUNDUP
NATIONAL WEATHER SERVICE JACKSON MS
600 PM CDT TUE JUL 29 2014

NOTE: "FAIR: INDICATES FEW OR NO CLOUDS BELOW 12,000 FEET WITH NO
SIGNIFICANT WEATHER AND/OR OBSTRUCTIONS TO VISIBILITY.

MSZ001>002-007>008-010>013-018>021-025>028-034>036-300000-
NORTHWEST MISSISSIPPI

CITY           SKY/WX    TMP DP  RH WIND       PRES   REMARKS
CLARKSDALE     FAIR      79  59  50 N13       30.10F
CLEVELAND      FAIR      80  62  54 N10       30.07F
GREENWOOD      SUNNY     81  57  43 N13       30.07S
GREENVILLE     SUNNY     82  60  47 N9        30.07F
GRENADA        FAIR      79  55  44 NE8       30.08S
OLIVE BRANCH   MOSUNNY   75  55  50 N8        30.11S
OXFORD         FAIR      77  54  44 N9        30.11F
TUNICA         PTCLDY    79  55  44 N12G17    30.11S
$$

MSZ003>006-009-014>017-022>024-029>033-037>039-300000-
NORTHEAST MISSISSIPPI

CITY           SKY/WX    TMP DP  RH WIND       PRES   REMARKS
BELMONT        FAIR      75  56  51 N5        30.09S
COLUMBUS AFB   SUNNY     79  55  44 NW12      30.07S
CORINTH        FAIR      75  54  46 N7        30.09F
GOLDN TRIANGLE MOSUNNY   81  55  41 N13       30.07S
STARKVILLE     FAIR      79  55  44 N5        30.07S
TUPELO         SUNNY     77  53  43 NE10      30.08S
$$

MSZ040-058-300000-
CENTRAL MISSISSIPPI

CITY           SKY/WX    TMP DP  RH WIND       PRES   REMARKS
JACKSON INTL   MOSUNNY   85  62  46 N16G22    30.04S
JACKSON HAWKNS SUNNY     85  62  46 VRB7      30.05S
MERIDIAN KEY   SUNNY     84  61  45 N14       30.02S
MERIDIAN NAS   MOSUNNY   82  62  50 N10       30.03S
RAYMOND        FAIR      84  79  84 N7        30.05S HX  96
VICKSBURG      SUNNY     85  64  49 N12       30.05S
$$

MSZ059>079-300000-
SOUTH MISSISSIPPI

CITY           SKY/WX    TMP DP  RH WIND       PRES   REMARKS
BROOKHAVEN     FAIR      84  66  54 NW8       30.05F
COLUMBIA       FAIR      86  66  51 NE7G13    30.00F
HATTIESBURG    SUNNY     88  62  41 MISG      30.00F
MCCOMB         PTSUNNY   87  63  44 NW10      30.03F
NATCHEZ        SUNNY     86  64  48 N6        30.04F
PINE BELT      MOSUNNY   88  63  42 N9        30.03S
$$

MSZ080>082-300000-
COASTAL MISSISSIPPI

CITY           SKY/WX    TMP DP  RH WIND       PRES   REMARKS
BAY ST LOUIS   MOSUNNY  N/A N/A N/A NW3       30.00F
BILOXI         PTSUNNY   87  63  45 VRB3      29.99F
PASCAGOULA     SUNNY     88  65  46 VRB5      29.98F HX  90
GULFPORT       PTSUNNY   92  62  36 N8        29.98F HX  92
$$



USA.gov is the U.S. government's official web portal to all federal, state and local government web resources and services.